Погода в Марьяновском

Россия / Омская область     54°55′15″N   72°31′42″E
темп.,
°C
ветер,
м/с
пор.,
м/с
влажн.,
%
обл.,
%
осадки,
мм/ч
давл.,
гПа
погр.,
м
12 мая, ср
ср1200:00+13з33440 0.0 102430
03:00+11з355128 0.0 102464
06:00+11зсз365752 0.0 1023111
09:00+17сз57396 0.0 1023376
12:00+22сз6726100 0.0 10221585
15:00+22сз81032100 0.0 10212090
18:00+19ссз61044100 0.0 1021945
21:00+15с51046100 0.0 1022381
13 мая, чт
чт1300:00+11ссз3105682 0.0 1023225
03:00+10ссз385794 0.0 1023166
06:00+11сз365240 0.0 1023177
09:00+11зсз255783 0.1 1022220
12:00+15з595497 0.1 1020660
15:00+19ссз71453100 0.1 10181971
18:00+17с5105878 0.1 1020951
21:00+15с2266100 0.0 102118
14 мая, пт
пт1400:00+13с34779 0.0 102360
03:00+10с4108352 0.0 1025227
06:00+8с38875 0.0 1027192
09:00+13ссв45555 0.0 1028665
12:00+18с45310 0.0 10281134
15:00+20ссз34250 0.0 10271422
18:00+21сз3425100 0.0 10271352
21:00+17юз113876 0.0 102611
15 мая, сб
сб1500:00+15юз334339 0.0 102641
03:00+14юз474788 0.0 102494
06:00+14зюз4952100 0.0 1024149
09:00+21зюз6103847 0.1 1023396
12:00+24з584098 0.1 1021676
15:00+29з792661 0.0 10193578
18:00+29зсз5829100 0.0 10183169
21:00+22сз33485 0.0 101822
16 мая, вс
вс1600:00+19з46515 0.0 101773
03:00+17зюз4116174 0.1 1016163
06:00+16з3106368 0.1 1016199
09:00+23з6114323 0.0 1015484
12:00+27зсз8123499 0.0 10151815
15:00+27сз8103622 0.0 10152598
18:00+26ссз683753 0.0 10152388
21:00+21с235584 0.0 101744